Home   Weather   Cayenne   Past weeks

Flag for French Guiana Past Weather in Cayenne, French Guiana — Yesterday and Last 2 Weeks

Now
88 °F

Partly sunny.


Feels Like: 100 °F
Forecast: 79 / 86 °F
Wind: 14 mph from East

Location: Cayenne / Rochambeau

Current Time: Apr 24, 2017 at 2:14:35 pm

Latest Report: Apr 24, 2017 at 1:30 pm


Visibility: N/A

Pressure: 29.89 "Hg

Humidity: 70%

Dew Point: 77 °F

Location of CayenneLocation

Past Weather in Cayenne — Graph

°F

Cayenne Temperature Yesterday

Maximum temperature yesterday: 88 °F (at 11:00 am)
Minimum temperature yesterday: 73 °F (at 6:00 am)
Average temperature yesterday: 80 °F

High & Low Weather Summary for the Past Weeks

 TemperatureHumidityPressure
High88 °F (Apr 13, 12:30 pm)100% (Apr 9, 8:00 pm)29.98 "Hg (Apr 9, 8:00 pm)
Low72 °F (Apr 20, 6:00 am)59% (Apr 18, 11:30 am)29.80 "Hg (Apr 9, 3:30 pm)
Average80 °F86%29.87 "Hg
* Reported Apr 9 1:00 pm — Apr 24 1:00 pm, Cayenne, Weather by CustomWeather, © 2017

Note: Actual official high and low records may vary slightly from our data, if they occured in-between our weather recording intervals... More about our weather records

Advertising

Cayenne Weather History for the Previous 24 Hours

Scroll right to see more
 ConditionsComfort  
Time TempWeatherWind HumidityBarometerVisibility
1:00 pm
Mon, Apr 24
88 °FPassing clouds.16 mph70%29.92 "HgN/A
12:30 pm88 °FScattered clouds.13 mph66%29.92 "HgN/A
12:00 pm88 °FPassing clouds.16 mph66%29.95 "HgN/A
11:30 am88 °FScattered clouds.16 mph70%29.95 "HgN/A
11:00 am88 °FBroken clouds.17 mph70%29.95 "Hg6 mi
10:30 am84 °FLight rain. Partly sunny.14 mph79%29.95 "HgN/A
10:00 am86 °FBroken clouds.14 mph75%29.95 "HgN/A
9:30 am84 °FBroken clouds.12 mph84%29.95 "HgN/A
9:00 am82 °FPartly sunny.10 mph84%29.95 "HgN/A
8:30 am84 °FPartly sunny.8 mph79%29.92 "HgN/A
8:00 am81 °FPartly sunny.2 mph89%29.92 "HgN/A
7:30 am79 °FPartly sunny.No wind94%29.89 "HgN/A
7:00 am77 °FMostly cloudy.No wind100%29.89 "HgN/A
6:30 am77 °FFog.No wind94%29.89 "Hg3 mi
6:00 am77 °FPassing clouds.2 mph94%29.89 "HgN/A
5:30 am77 °FHeavy rain. Fog.7 mph100%29.86 "Hg1 mi
5:00 am77 °FPassing clouds.No wind94%29.86 "HgN/A
4:30 am77 °FPassing clouds.No wind100%29.86 "HgN/A
4:00 am75 °FPassing clouds.No wind100%29.86 "HgN/A
3:30 am77 °FPassing clouds.No wind100%29.86 "HgN/A
3:00 am77 °FPassing clouds.No wind100%29.86 "HgN/A
2:30 am77 °FPassing clouds.No wind100%29.86 "HgN/A
2:00 am77 °FRain. Partly cloudy.1 mph100%29.89 "HgN/A
1:30 am77 °FPassing clouds.No wind100%29.89 "HgN/A
1:00 am77 °FPassing clouds.No wind100%29.89 "HgN/A
12:30 am77 °FPartly cloudy.2 mph100%29.89 "HgN/A
12:00 am79 °FPassing clouds.No wind94%29.92 "HgN/A
11:30 pm
Sun, Apr 23
79 °FPartly cloudy.2 mph94%29.92 "HgN/A
11:00 pm79 °FPassing clouds.7 mph94%29.92 "HgN/A
10:30 pm81 °FPassing clouds.3 mph84%29.92 "HgN/A
10:00 pm81 °FPartly cloudy.No wind89%29.89 "HgN/A
9:30 pm81 °FPassing clouds.2 mph89%29.89 "HgN/A
9:00 pm81 °FPassing clouds.3 mph84%29.89 "HgN/A
8:30 pm81 °FPassing clouds.3 mph84%29.86 "HgN/A
8:00 pm81 °FPartly cloudy.3 mph84%29.86 "HgN/A
7:30 pm81 °FPartly cloudy.3 mph84%29.86 "HgN/A
7:00 pm81 °FPassing clouds.5 mph84%29.83 "HgN/A
6:30 pm82 °FSunny.5 mph79%29.83 "Hg10 mi
6:00 pm82 °FScattered clouds.10 mph79%29.83 "HgN/A
5:30 pm84 °FPartly sunny.12 mph74%29.83 "HgN/A
5:00 pm86 °FPartly sunny.13 mph70%29.83 "HgN/A
4:30 pm84 °FBroken clouds.12 mph79%29.83 "HgN/A
4:00 pm84 °FMore clouds than sun.9 mph74%29.83 "HgN/A
3:30 pm86 °FBroken clouds.13 mph70%29.83 "HgN/A
3:00 pm88 °FPartly sunny.12 mph66%29.83 "HgN/A
2:30 pm86 °FMostly cloudy.10 mph70%29.86 "HgN/A
2:00 pm86 °FBroken clouds.10 mph70%29.86 "HgN/A
Weather by CustomWeather, © 2017

See weather overviewHow to use our weather pages